User: anonymous   Login
Location: Unspecified
(0.0000°N, 0.0000°E)
Time: 14:19:39
(UTC+00:00)
Language:

FO-99 - Orbit

View from above orbital plane
View from above orbital plane
View from above satellite
View from above satellite

Ground track
Ground track

The orbit data is extracted from the following two-line orbital elements,

1 43937U 19003F   20228.10874711  .00000977  00000-0  42228-4 0  9997
2 43937  97.2219 276.9970 0024499  21.4505 338.7754 15.24508711 87571
Epoch (UTC): 15 August 2020 02:36:35
Eccentricity: 0.0024499
inclination: 97.2219°
perigee height: 475 km
apogee height: 509 km
right ascension of ascending node: 276.9970°
argument of perigee: 21.4505°
revolutions per day: 15.24508711
mean anomaly at epoch: 338.7754°
orbit number at epoch: 8757

The dashed part of the orbit path shows where the satellite is in the earth's shadow,  

DLR